GORIZONT 2 [-]

Last updated on Jan. 23, 2021, 7:20 a.m. UTC

1 11440U 79062A   21022.96501814 -.00000088  00000-0  00000-0 0  9992
2 11440  10.4362 307.9046 0003851 333.8465 264.4598  1.00306990118259
UTC
Height (km)
Latitude
Longitude
Inclination
Orbital Period
UTC large
Height (km)
Speed (km/s)
/
Latitude / Longitude
Inclination (degrees)
Orbital Period (minutes)
Azimuth
Elevation
Range (km)
Doppler Factor
iOS Compass Heading
iOS Angle

Next 30 passes for location: Hong Kong

Rise time Rise Azimuth (degrees) Set time Set Azimuth (degrees) Duration Max altitude (degrees)

No matching passes for this satellites